DECAYED

STARLINK-1711, 46374 (Decayed)

Orbit data source: Space-Track

STARLINK-1711, 46374 was a payload satellite owned by SpaceX/Seattle (US) in LEO that was launched on Thu, 03 Sep 2020 UTC via an FALCON 9 launch vehicle from the Air Force Eastern Test Range (AFETR). Payload-class satellites include a variety of spacecraft equipped with specific instruments for various scientific and technological missions. These include communications satellites like Starlink; space stations such as the ISS; scientific satellites like the Hubble; Earth observation satellites from companies like Planet Labs, Umbra, and HawkEye 360; GPS; miniature CubeSats for education and research; and military/defense satellites.

Not visible in the next 10 days
Identifier
46374, 2020-062BB
Orbit
Decayed
Country
Flag of USUS
Related business
Manufacturer
SpaceX/Seattle
Mission
Decayed Commercial Communications
Bus & Motor
STARLINK, Unknown motor
Mass
260 kg wet, ~248 kg dry
Launch date (UTC)
2020-09-03 (6 years ago)
Launch vehicle
FALCON 9
Launch site
Air Force Eastern Test Range (AFETR)
Object type
Payload
Rocket body
Debris
Shape & HBR
Box + 1 Pan, 10.1 m
Radar Cross Section
13.562 m², Large (>1 m²)

Expand to show TLE details & history
Last TLE update: 1 year ago

TLE from 1 year ago
0 STARLINK-1711
1 46374U 20062BB  25052.56747248  .86898263  12609-4  29044-3 0  9995
2 46374  53.0159 161.6574 0022831 220.1008 239.0289 16.57297914248714
Epoch: 2025-02-21T13:37Z
TLE epoch observation values (Epoch: 2025-02-21T13:37:09.622Z)
Latitude
52.267°
Longitude
-89.74347°
Altitude
134.108 km
Speed
7.828 km/s
True Right ascension
17h 45m 05s
True Declination
52° 05' 04"
Sunlit
Object was in daylight at epoch
Visualization orbit readout
Latitude
Unknown
Longitude
Unknown
Altitude
Unknown
Speed
Unknown
Apparent Right ascension
Unknown
Apparent Declination
Unknown
Sunlit
N/A
Visualization observer readout
Local Sidereal Time
19:45:35
Azimuth
Unknown
Elevation
Unknown
Doppler factor
Unknown
Orbital elements
Apogee altitude
135.32 km
Perigee altitude
105.646 km
Semi-major axis
6,498.62 km
Eccentricity
0.00228
Inclination
53.0159°
RAAN
161.6574°
Arg. of periapsis
220.1008°
True anomaly
238.80491°
Mean anomaly
239.0289°
Eccentric anomaly
238.91687°
Mean motion
4.14297 °/min
Orbital period
86.89 mins
BSTAR
0.00029044
Loading maneuver chart data...
Computing Atmospheric mass density...
Loading historical data...
Loading historical data...
Loading historical data...
Loading historical data...
Loading historical data...
Loading historical data...
Loading historical data...

Documentation

Showing up to 5 results
|